News / 

AP-UT--SLC-UT 2nd Weather Roundup, UT

By The Associated Press | Posted - Mar. 3, 2014 at 8:12 a.m.



This archived news story is available only for your personal, non-commercial use. Information in the story may be outdated or superseded by additional information. Reading or replaying the story in its archived form does not constitute a republication of the story.

AP-UT--SLC-UT 2nd Weather Roundup

542

ASUS45 KSLC 031510

RWRUT

UTAH REGIONAL WEATHER ROUNDUP

NATIONAL WEATHER SERVICE SALT LAKE CITY UT

800 AM MST MON MAR 03 2014

UTZ001>011-023>025-031600-

NORTHERN UTAH

CITY SKY/WX TMP DP RH WIND PRES REMARKS

DUGWAY PTCLDY 37 33 84 CALM 30.12R

HILL AFB PTSUNNY 44 27 52 S8 30.10R

LOGAN CLOUDY 43 35 73 E5 30.08R

OGDEN CLOUDY 45 34 65 SE5 30.09R

PROVO AIRPORT MOSUNNY 39 32 75 CALM 30.13R

SALT LAKE CITY PTSUNNY 47 37 68 S5 30.10R

VERNAL MOSUNNY 34 28 79 W5 30.10R WCI 30

WENDOVER PTCLDY 37 30 75 CALM 30.08R

HEBER CITY PTSUNNY 34 32 93 CALM 30.13R

WEST JORDAN PTSUNNY 43 36 75 S9 30.12R

$$

UTZ012>022-026-027-031600-

SOUTHERN UTAH

CITY SKY/WX TMP DP RH WIND PRES REMARKS

BRYCE CANYON SUNNY 30 27 88 W5 30.17R WCI 25

CEDAR CITY N/A 31 29 92 CALM 30.15R

MILFORD SUNNY 37 33 85 SW8 30.15R WCI 31

MOAB/CYNLANDS SUNNY 39 33 79 W3 30.11R

PRICE SUNNY 39 28 64 CALM 30.12R

ST GEORGE MOSUNNY 43 36 75 N5 30.17S

$$

REGIONAL REPORTS COLORADO/ARIZONA

CITY SKY/WX TMP DP RH WIND PRES REMARKS

CRAIG, CO CLOUDY 31 28 89 CALM 30.10R

GRAND JUNCTION PTSUNNY 36 29 75 SE5 30.13R WCI 32

RIFLE CLOUDY 33 30 88 CALM 30.15R

MONTROSE MOSUNNY 35 28 75 CALM 30.15R

CORTEZ SUNNY 34 30 85 CALM 30.16R

PAGE, AZ SUNNY 47 35 63 CALM 30.14R

GRAND CANYON SUNNY 30 29 96 E3 30.17R

KINGMAN SUNNY 38 35 89 CALM 30.12S

FLAGSTAFF MOSUNNY 32 29 88 CALM 30.15R

$$

REGIONAL REPORTS NEVADA/IDAHO/WYOMING

CITY SKY/WX TMP DP RH WIND PRES REMARKS

LAS VEGAS, NV PTCLDY 51 37 58 W8 30.07F

ELY CLEAR 28 26 92 S8 30.15S WCI 20

ELKO PTCLDY 36 31 82 CALM 30.07F

POCATELLO, ID MOCLDY 42 35 76 SW15 30.04R

BURLEY PTCLDY 40 33 76 SW9 30.01F WCI 34

EVANSTON, WY PTSUNNY 33 31 92 SW15 30.10R WCI 23

ROCK SPRINGS MOSUNNY 36 28 73 W24G37 30.03R WCI 24

$$

Delivered by Weather Underground Inc. Mon Mar 3 2014 10:10AM EST

Copyright © The Associated Press. All rights reserved. This material may not be published, broadcast, rewritten or redistributed.

The Associated Press

    SIGN UP FOR THE KSL.COM NEWSLETTER

    Catch up on the top news and features from KSL.com, sent weekly.
    By subscribing, you acknowledge and agree to KSL.com's Terms of Use and Privacy Policy.

    KSL Weather Forecast